"2009-02-28 00:00:00",668504,7.052,329.8,4.767,0.736,0.101,100.2067,-0.173,0.823,19.89,0,109.7,13.51,0.58,291.8
"2009-02-28 00:00:30",668505,9.65,335.8,6.091,1.118,3.56,100.2127,-0.157,0.974,20,0,109.7,13.51,0.59,297.8
"2009-02-28 00:01:00",668506,9.64,335.5,4.793,0.852,5.043,100.2189,-0.141,1.053,20.06,0,109.7,13.51,0.61,297.5
"2009-02-28 00:01:30",668507,8.39,342.9,8.55,0.802,5.277,100.2195,-0.14,1.054,19.89,0,109.7,13.52,0.61,304.9
"2009-02-28 00:02:00",668508,9.68,342.2,9.84,1.553,5.048,100.2183,-0.143,1.049,19.78,0,109.7,13.52,0.61,304.2
"2009-02-28 00:02:30",668509,9.66,332.4,5.862,1.09,4.907,100.2189,-0.141,1.083,19.8,0,109.7,13.52,0.61,294.4
"2009-02-28 00:03:00",668510,9.39,338.5,7.736,0.793,4.572,100.2234,-0.13,1.079,19.85,0,109.7,13.52,0.62,300.5
"2009-02-28 00:03:30",668511,8.54,344.2,5.177,0.875,4.696,100.2345,-0.102,1.094,19.81,0,109.7,13.52,0.65,306.2
"2009-02-28 00:04:00",668512,9.66,342.3,4.038,0.736,4.123,100.2395,-0.089,1.112,19.82,0,109.7,13.52,0.66,304.3
"2009-02-28 00:04:30",668513,9.57,345.9,6.039,0.695,4.213,100.2461,-0.072,1.133,19.94,0,109.7,13.52,0.68,307.9
"2009-02-28 00:05:00",668514,8.97,348.7,4.641,0.713,4.169,100.2545,-0.051,1.132,19.71,0,109.7,13.52,0.70,310.7
"2009-02-28 00:05:30",668515,8.33,349,5.003,0.744,4.249,100.2571,-0.044,1.123,19.62,0,109.7,13.52,0.71,311.0
"2009-02-28 00:06:00",668516,8.55,340.7,4.925,0.558,4.103,100.2582,-0.041,1.148,19.73,0,109.7,13.52,0.71,302.7
"2009-02-28 00:06:30",668517,7.775,343.6,4.701,0.806,3.498,100.2577,-0.043,1.157,19.95,0,109.7,13.52,0.71,305.6
"2009-02-28 00:07:00",668518,7.204,346.5,7.721,1.333,2.633,100.2591,-0.039,1.087,19.89,0,109.7,13.52,0.71,308.5
"2009-02-28 00:07:30",668519,5.988,349.8,5.435,0.918,0.346,100.2562,-0.046,0.915,19.53,0,109.7,13.52,0.71,311.8
"2009-02-28 00:08:00",668520,6.785,357.5,6.302,1.259,3.142,100.2602,-0.036,1.05,19.93,0,109.7,13.52,0.72,319.5
"2009-02-28 00:08:30",668521,7.325,358.3,5.142,1.137,3.592,100.2591,-0.039,1.123,19.87,0,109.7,13.52,0.71,320.3
"2009-02-28 00:09:00",668522,7.639,357.4,5.917,0.808,4.864,100.2599,-0.037,1.179,19.82,0,109.7,13.52,0.71,319.4
"2009-02-28 00:09:30",668523,7.738,354.5,6.177,0.649,4.584,100.2619,-0.032,1.196,19.87,0,109.7,13.52,0.72,316.5
"2009-02-28 00:10:00",668524,6.96,354.2,6.11,1.162,3.384,100.2608,-0.035,1.116,19.88,0,109.7,13.52,0.72,316.2
"2009-02-28 00:10:30",668525,6.329,357.8,7.004,1.075,3.291,100.2613,-0.033,1.126,19.82,0,109.7,13.52,0.72,319.8
"2009-02-28 00:11:00",668526,5.577,352.6,9.93,1.091,1.537,100.2613,-0.033,0.997,19.67,0,109.7,13.52,0.72,314.6
"2009-02-28 00:11:30",668527,5.555,9.03,6.741,1.133,3.205,100.2664,-0.02,1.068,19.47,0,109.7,13.52,0.73,331.0
"2009-02-28 00:12:00",668528,5.341,0.183,7.014,1.877,2.514,100.2891,0.037,1.153,19.33,0,109.6,13.52,0.79,322.2
"2009-02-28 00:12:30",668529,7.829,9.02,8.53,1.138,3.73,100.2961,0.055,1.186,19.46,0,109.7,13.52,0.81,331.0
"2009-02-28 00:13:00",668530,8.66,6.068,10.95,1.361,3.845,100.2976,0.059,1.176,18.74,0,109.7,13.52,0.81,328.1
"2009-02-28 00:13:30",668531,8.84,9.29,10,0.93,4.929,100.299,0.063,1.251,18.74,0,109.7,13.52,0.82,331.3
"2009-02-28 00:14:00",668532,8.69,22.69,8.88,1.842,4.585,100.3114,0.094,1.27,19.01,0,109.7,13.52,0.85,344.7
"2009-02-28 00:14:30",668533,6.481,14.4,9.6,1.637,4.78,100.3224,0.123,1.3,19.35,0,109.7,13.52,0.87,336.4
"2009-02-28 00:15:00",668534,5.31,14.18,9.39,1.128,4.26,100.3315,0.146,1.283,19.53,0,109.7,13.52,0.90,336.2
"2009-02-28 00:15:30",668535,4.833,359.5,13.3,2.05,0.614,100.336,0.157,1.146,19.36,0,109.7,13.52,0.91,321.5
"2009-02-28 00:16:00",668536,4.569,357.1,11.78,1.735,0.425,100.3375,0.161,1.013,19.19,0,109.7,13.52,0.91,319.1
"2009-02-28 00:16:30",668537,5.2,5.7,11.61,0.784,2.982,100.3346,0.154,1.276,19.45,0,109.7,13.53,0.91,327.7
"2009-02-28 00:17:00",668538,6.498,12.01,15.71,2.064,3.959,100.3346,0.154,1.301,19.59,0,109.7,13.53,0.91,334.0
"2009-02-28 00:17:30",668539,8.81,23.72,6.731,1.311,5.104,100.3352,0.155,1.32,20.02,0,109.7,13.53,0.91,345.7
"2009-02-28 00:18:00",668540,7.996,32.49,3.631,0.905,4.877,100.3324,0.148,1.332,20.37,0,109.7,13.53,0.90,354.5
"2009-02-28 00:18:30",668541,9.51,17.45,9.11,1.061,4.955,100.3216,0.12,1.311,20.47,0,109.7,13.53,0.87,339.5
"2009-02-28 00:19:00",668542,6.594,13.53,6.177,1.47,4.757,100.3216,0.12,1.311,20.46,0,109.7,13.53,0.87,335.5
"2009-02-28 00:19:30",668543,9.75,25.61,12.57,1.222,4.82,100.3199,0.116,1.316,20.13,0,109.7,13.53,0.87,347.6
"2009-02-28 00:20:00",668544,9.6,24.02,10.78,1.61,5.036,100.3225,0.123,1.309,18.97,0,109.7,13.53,0.88,346.0
"2009-02-28 00:20:30",668545,9.79,24.82,6.72,1.684,5.195,100.3335,0.151,1.317,18.08,0,109.6,13.53,0.90,346.8
"2009-02-28 00:21:00",668546,9.32,19.4,8.15,1.943,5.246,100.3394,0.166,1.334,16.67,0,109.7,13.53,0.92,341.4
"2009-02-28 00:21:30",668547,9.31,19.83,6.369,1.072,5.324,100.3394,0.166,1.35,16.14,0,109.7,13.53,0.92,341.8
"2009-02-28 00:22:00",668548,10.52,12.38,9.64,2.022,5.37,100.3482,0.188,1.371,15.93,0,109.7,13.53,0.94,334.4
"2009-02-28 00:22:30",668549,11.93,5.793,6.084,1.634,5.428,100.3643,0.229,1.376,16.05,0,109.7,13.53,0.98,327.8
"2009-02-28 00:23:00",668550,9.6,14.53,5.557,1.609,5.568,100.3728,0.251,1.419,15.94,0,109.7,13.53,1.00,336.5
"2009-02-28 00:23:30",668551,9.25,16.47,5.595,1.501,5.6,100.3734,0.252,1.412,15.75,0,109.7,13.53,1.01,338.5
"2009-02-28 00:24:00",668552,10.7,18.77,8.6,2.219,5.578,100.3802,0.27,1.436,15.73,0,109.7,13.53,1.02,340.8
"2009-02-28 00:24:30",668553,12.91,5.278,4.934,2.315,5.599,100.3926,0.302,1.469,15.72,0,109.7,13.53,1.05,327.3
"2009-02-28 00:25:00",668554,11.31,7.291,4.95,1.269,5.775,100.4042,0.331,1.475,15.69,0,109.7,13.53,1.08,329.3
"2009-02-28 00:25:30",668555,8.34,10.28,6.275,1.789,5.956,100.4073,0.339,1.512,15.54,0,109.7,13.52,1.09,332.3
"2009-02-28 00:26:00",668556,7.383,14.62,6.128,0.822,5.692,100.4073,0.339,1.533,15.58,0,109.7,13.52,1.09,336.6
"2009-02-28 00:26:30",668557,7.234,19.3,5.126,1.134,5.254,100.4121,0.351,1.546,15.52,0,109.7,13.52,1.10,341.3
"2009-02-28 00:27:00",668558,7.973,18.77,5.683,0.964,5.045,100.4175,0.365,1.553,15.44,0,109.6,13.52,1.12,340.8
"2009-02-28 00:27:30",668559,8.71,16.75,5.018,1.21,4.592,100.4186,0.368,1.581,15.39,0,109.6,13.52,1.12,338.8
"2009-02-28 00:28:00",668560,9.12,16.49,7.913,1.131,4.501,100.4215,0.375,1.563,15.35,0,109.6,13.52,1.13,338.5
"2009-02-28 00:28:30",668561,9.1,16.09,6.194,0.853,4.481,100.4169,0.364,1.587,15.35,0,109.7,13.52,1.12,338.1
"2009-02-28 00:29:00",668562,9.34,14.57,4.03,1.332,4.489,100.4102,0.346,1.583,15.42,0,109.6,13.52,1.10,336.6
"2009-02-28 00:29:30",668563,10.82,13.76,4.936,0.951,4.963,100.4082,0.341,1.571,15.5,0,109.6,13.52,1.09,335.8
"2009-02-28 00:30:00",668564,11.14,10.83,5.369,1.349,5.064,100.4093,0.344,1.578,15.56,0,109.6,13.52,1.10,332.8
"2009-02-28 00:30:30",668565,11.29,8.94,4.767,1.522,5.3,100.4121,0.351,1.607,15.5,0,109.6,13.52,1.10,330.9
"2009-02-28 00:31:00",668566,11.86,6.477,4.15,1.275,5.518,100.422,0.377,1.61,15.58,0,109.6,13.52,1.13,328.5
"2009-02-28 00:31:30",668567,10.76,7.69,4.51,1.311,5.748,100.424,0.382,1.608,15.67,0,109.6,13.53,1.13,329.7
"2009-02-28 00:32:00",668568,11.33,6.663,4.567,1.554,5.75,100.4288,0.394,1.632,15.69,0,109.6,13.53,1.15,328.7
"2009-02-28 00:32:30",668569,9.89,9.83,4.593,1.379,5.703,100.4365,0.413,1.624,15.64,0,109.6,13.53,1.17,331.8
"2009-02-28 00:33:00",668570,8.96,10.44,5.735,1.169,5.646,100.4396,0.421,1.646,15.69,0,109.6,13.53,1.17,332.4
"2009-02-28 00:33:30",668571,8.59,14.74,7.759,1.515,5.443,100.4308,0.399,1.642,15.69,0,109.6,13.53,1.15,336.7
"2009-02-28 00:34:00",668572,9.24,14.67,4.011,1.189,5.441,100.4184,0.367,1.634,15.7,0,109.6,13.53,1.12,336.7
"2009-02-28 00:34:30",668573,10.57,18.81,3.42,1.119,5.422,100.4076,0.34,1.617,15.75,0,109.6,13.53,1.09,340.8
"2009-02-28 00:35:00",668574,8.53,21.4,4.718,1.749,5.357,100.4073,0.339,1.614,15.8,0,109.6,13.53,1.09,343.4
"2009-02-28 00:35:30",668575,9.02,17.57,5.171,1.485,5.223,100.4045,0.332,1.59,15.86,0,109.6,13.53,1.08,339.6
"2009-02-28 00:36:00",668576,10.63,17.59,3.98,0.846,5.278,100.3935,0.304,1.575,15.96,0,109.6,13.53,1.06,339.6
"2009-02-28 00:36:30",668577,8.13,15.44,4.334,0.872,5.346,100.3867,0.286,1.579,15.97,0,109.6,13.53,1.04,337.4
"2009-02-28 00:37:00",668578,8.09,12.04,4.248,0.796,5.022,100.3759,0.259,1.536,15.96,0,109.6,13.53,1.01,334.0
"2009-02-28 00:37:30",668579,7.793,11.39,4.715,0.688,4.825,100.3759,0.259,1.524,15.92,0,109.6,13.53,1.01,333.4
"2009-02-28 00:38:00",668580,7.743,17.38,6.514,0.845,4.527,100.3751,0.257,1.516,15.86,0,109.6,13.53,1.01,339.4
"2009-02-28 00:38:30",668581,7.593,18.64,4.015,0.921,4.32,100.3782,0.265,1.513,15.86,0,109.6,13.53,1.02,340.6
"2009-02-28 00:39:00",668582,7.967,23.2,5.055,0.6,4.134,100.3587,0.215,1.501,15.9,0,109.6,13.54,0.97,345.2
"2009-02-28 00:39:30",668583,7.477,23.41,4.43,0.745,4.168,100.3463,0.183,1.472,16.02,0,109.6,13.54,0.94,345.4
"2009-02-28 00:40:00",668584,7.499,19.5,6.041,0.708,4.594,100.348,0.188,1.47,16.06,0,109.6,13.54,0.94,341.5
"2009-02-28 00:40:30",668585,7.601,22.07,4.687,0.638,4.434,100.3488,0.19,1.447,16.09,0,109.6,13.54,0.94,344.1
"2009-02-28 00:41:00",668586,7.117,19.18,4.87,0.949,4.395,100.3463,0.183,1.445,16.09,0,109.6,13.54,0.94,341.2
"2009-02-28 00:41:30",668587,6.85,24.52,4.8,0.695,4.055,100.3358,0.157,1.402,16.1,0,109.6,13.54,0.91,346.5
"2009-02-28 00:42:00",668588,7.168,20.71,5.758,0.858,3.825,100.3304,0.143,1.307,16.18,0,109.6,13.53,0.90,342.7
"2009-02-28 00:42:30",668589,5.865,16.18,5.115,1.259,1.468,100.322,0.121,1.223,16.22,0,109.6,13.53,0.87,338.2
"2009-02-28 00:43:00",668590,5.25,12.53,6.646,1.227,1.193,100.3228,0.123,1.099,16.21,0,109.6,13.53,0.88,334.5
"2009-02-28 00:43:30",668591,7.618,24.3,5.526,1.262,5.019,100.318,0.111,1.334,16.54,0,109.6,13.54,0.86,346.3
"2009-02-28 00:44:00",668592,8.12,26.04,4.042,1.384,5.68,100.3036,0.074,1.349,16.59,0,109.6,13.54,0.83,348.0
"2009-02-28 00:44:30",668593,7.606,24.51,5.899,0.996,5.806,100.2903,0.041,1.31,16.63,0,109.6,13.54,0.79,346.5
"2009-02-28 00:45:00",668594,8.1,23.48,5.354,0.986,5.705,100.2908,0.042,1.29,16.71,0,109.6,13.54,0.79,345.5
"2009-02-28 00:45:30",668595,8.47,22.26,6.991,0.811,5.25,100.2889,0.037,1.259,16.74,0,109.6,13.54,0.79,344.3
"2009-02-28 00:46:00",668596,8.16,20.73,4.015,0.99,5.001,100.2744,0,1.256,16.79,0,109.6,13.54,0.75,342.7
"2009-02-28 00:46:30",668597,7.69,28.15,3.896,0.909,4.626,100.2628,-0.029,1.231,16.82,0,109.6,13.54,0.72,350.1
"2009-02-28 00:47:00",668598,7.611,25.03,3.875,1.083,4.64,100.264,-0.027,1.221,16.93,0,109.6,13.54,0.73,347.0
"2009-02-28 00:47:30",668599,6.828,24.75,3.903,0.581,4.698,100.2634,-0.028,1.192,16.99,0,109.6,13.54,0.72,346.8
"2009-02-28 00:48:00",668600,7.809,25.5,4.229,0.794,4.435,100.2634,-0.028,1.188,17.03,0,109.6,13.54,0.72,347.5
"2009-02-28 00:48:30",668601,8.24,27.19,3.934,0.795,4.361,100.2623,-0.031,1.17,17.06,0,109.6,13.55,0.72,349.2
"2009-02-28 00:49:00",668602,7.312,28.12,4.485,0.747,4.432,100.2552,-0.049,1.18,17.08,0,109.6,13.55,0.70,350.1
"2009-02-28 00:49:30",668603,6.315,25.44,3.898,0.84,4.557,100.2467,-0.071,1.154,17.1,0,109.6,13.55,0.68,347.4
"2009-02-28 00:50:00",668604,7.933,28.8,3.94,1.081,4.268,100.2382,-0.092,1.15,17.13,0,109.6,13.55,0.66,350.8
"2009-02-28 00:50:30",668605,7.267,27.36,5.187,1.167,3.556,100.2354,-0.099,1.05,17.01,0,109.6,13.55,0.65,349.4
"2009-02-28 00:51:00",668606,6.088,20.82,4.983,1.015,1.27,100.2383,-0.092,0.859,16.84,0,109.6,13.55,0.66,342.8
"2009-02-28 00:51:30",668607,7.425,25.9,6.269,1.178,3.093,100.2354,-0.099,1.018,16.99,0,109.5,13.56,0.65,347.9
"2009-02-28 00:52:00",668608,8.62,31.23,3.805,0.941,5.309,100.2368,-0.096,1.132,17.12,0,109.6,13.56,0.66,353.2
"2009-02-28 00:52:30",668609,8.15,29.53,4.096,0.803,5.822,100.2368,-0.096,1.131,17.13,0,109.5,13.56,0.66,351.5
"2009-02-28 00:53:00",668610,7.436,28.23,3.503,0.879,5.699,100.2374,-0.094,1.112,17.2,0,109.5,13.56,0.66,350.2
"2009-02-28 00:53:30",668611,7.288,28.07,3.955,0.817,5.273,100.2252,-0.125,1.088,17.22,0,109.5,13.56,0.63,350.1
"2009-02-28 00:54:00",668612,6.746,26.38,4.406,0.911,4.982,100.2148,-0.152,1.062,17.26,0,109.5,13.56,0.60,348.4
"2009-02-28 00:54:30",668613,7.868,27.76,4.262,1.196,4.459,100.204,-0.179,1.059,17.3,0,109.5,13.56,0.57,349.8
"2009-02-28 00:55:00",668614,7.205,25.29,4.179,1.054,4.522,100.2037,-0.18,1.028,17.36,0,109.5,13.56,0.57,347.3
"2009-02-28 00:55:30",668615,6.761,25.97,4.073,0.739,4.241,100.193,-0.208,1.039,17.42,0,109.5,13.56,0.54,348.0
"2009-02-28 00:56:00",668616,6.846,26,4.395,1.09,4.168,100.1845,-0.229,1.018,17.43,0,109.5,13.56,0.52,348.0
"2009-02-28 00:56:30",668617,7.845,33.62,4.723,0.778,4.067,100.1737,-0.257,1.005,17.44,0,109.5,13.56,0.49,355.6
"2009-02-28 00:57:00",668618,7.932,30.91,3.7,0.713,4.194,100.1698,-0.267,0.971,17.42,0,109.5,13.56,0.48,352.9
"2009-02-28 00:57:30",668619,7.297,35.79,3.764,0.814,4.307,100.1698,-0.267,0.994,17.45,0,109.5,13.56,0.48,357.8
"2009-02-28 00:58:00",668620,7.294,33.88,3.831,0.806,4.332,100.1698,-0.267,0.98,17.46,0,109.5,13.56,0.48,355.9
"2009-02-28 00:58:30",668621,7.391,30.07,4.067,0.638,4.381,100.1698,-0.267,0.952,17.44,0,109.5,13.56,0.48,352.1
"2009-02-28 00:59:00",668622,6.83,28,5.565,1.073,2.883,100.1712,-0.263,0.834,17.33,0,109.5,13.56,0.49,350.0
"2009-02-28 00:59:30",668623,5.152,20.15,7.524,1.509,0.976,100.1715,-0.262,0.693,17.22,0,109.5,13.56,0.49,342.1
"2009-02-28 01:00:00",668624,5.884,25.64,5.235,1.145,4.095,100.1729,-0.259,0.928,17.45,0,109.5,13.56,0.49,347.6
"2009-02-28 01:00:30",668625,6.512,30.04,6.134,1.124,4.345,100.1735,-0.257,0.925,17.44,0,109.5,13.56,0.49,352.0
"2009-02-28 01:01:00",668626,6.771,31.86,5.55,1.049,4.8,100.1752,-0.253,0.924,17.47,0,109.5,13.56,0.50,353.9
"2009-02-28 01:01:30",668627,6.272,32.38,4.253,0.909,4.962,100.1769,-0.249,0.894,17.49,0,109.5,13.56,0.50,354.4
"2009-02-28 01:02:00",668628,6.548,30.16,3.893,0.787,4.989,100.1814,-0.237,0.938,17.54,0,109.5,13.56,0.51,352.2
"2009-02-28 01:02:30",668629,6.598,31.35,2.978,0.764,4.558,100.1814,-0.237,0.94,17.53,0,109.5,13.56,0.51,353.4
"2009-02-28 01:03:00",668630,6.416,29.89,2.936,0.818,4.513,100.1803,-0.24,0.942,17.52,0,109.5,13.57,0.51,351.9
"2009-02-28 01:03:30",668631,6.87,31.77,4.443,0.395,4.412,100.1859,-0.226,0.948,17.52,0,109.5,13.57,0.53,353.8
"2009-02-28 01:04:00",668632,6.244,31.57,2.532,0.65,4.243,100.191,-0.213,0.934,17.53,0,109.5,13.57,0.54,353.6
"2009-02-28 01:04:30",668633,5.863,34.27,4.773,1.07,3.239,100.195,-0.202,0.905,17.52,0,109.5,13.57,0.55,356.3
"2009-02-28 01:05:00",668634,3.811,26.37,2.978,0.267,-0.239,100.1942,-0.205,0.643,17.3,0,109.5,13.6,0.55,348.4
"2009-02-28 01:05:30",668635,4.806,26.83,5.201,1.126,0.991,100.1956,-0.201,0.639,17.29,0,109.5,13.57,0.55,348.8
"2009-02-28 01:06:00",668636,5.711,35.2,6.033,1.073,3.846,100.1936,-0.206,0.831,17.49,0,109.5,13.57,0.55,357.2
"2009-02-28 01:06:30",668637,6.507,38.76,4.863,0.646,5.395,100.1885,-0.219,0.973,17.6,0,109.5,13.58,0.53,0.8
"2009-02-28 01:07:00",668638,6.457,36.64,3.534,0.645,5.477,100.1718,-0.262,0.957,17.74,0,109.5,13.58,0.49,358.6
"2009-02-28 01:07:30",668639,6.235,38.15,3.56,0.751,5.236,100.1644,-0.28,0.946,17.76,0,109.5,13.58,0.47,0.2
"2009-02-28 01:08:00",668640,5.918,39.46,3.588,0.754,4.825,100.167,-0.274,0.935,17.85,0,109.5,13.58,0.48,1.5
"2009-02-28 01:08:30",668641,5.871,38.73,5.352,0.982,3.834,100.1681,-0.271,0.938,17.85,0,109.5,13.58,0.48,0.7
"2009-02-28 01:09:00",668642,4.901,34.86,5.549,1.248,1.403,100.1698,-0.267,0.644,17.45,0,109.5,13.58,0.48,356.9
"2009-02-28 01:09:30",668643,5.004,36.89,4.907,0.907,2.145,100.1695,-0.267,0.784,17.62,0,109.5,13.58,0.48,358.9
"2009-02-28 01:10:00",668644,5.651,36.92,4.898,0.94,4.16,100.1695,-0.267,0.849,17.7,0,109.5,13.59,0.48,358.9
"2009-02-28 01:10:30",668645,5.692,39.25,4.462,0.943,5.182,100.169,-0.269,0.888,17.74,0,109.6,13.59,0.48,1.2
"2009-02-28 01:11:00",668646,5.546,40.68,4.096,0.656,5.107,100.1673,-0.273,0.912,17.76,0,109.5,13.59,0.48,2.7
"2009-02-28 01:11:30",668647,5.682,36.96,6.109,1.15,3.839,100.1613,-0.288,0.817,17.68,0,109.5,13.59,0.46,359.0
"2009-02-28 01:12:00",668648,4.761,30.83,5.972,0.941,2.108,100.154,-0.307,0.815,17.69,0,109.5,13.59,0.44,352.8
"2009-02-28 01:12:30",668649,4.94,27.11,7.159,1.19,2.211,100.1497,-0.318,0.613,17.5,0,109.5,13.59,0.43,349.1
"2009-02-28 01:13:00",668650,5.053,29.7,5.833,1.201,3.436,100.1438,-0.333,0.846,17.75,0,109.5,13.59,0.42,351.7
"2009-02-28 01:13:30",668651,5.351,29.04,6.262,1.135,3.812,100.1381,-0.347,0.835,17.75,0,109.5,13.59,0.40,351.0
"2009-02-28 01:14:00",668652,5.736,22.41,6.187,1,4.824,100.1364,-0.352,0.84,17.78,0,109.5,13.59,0.40,344.4
"2009-02-28 01:14:30",668653,6.039,2.517,5.728,1.046,4.713,100.1387,-0.346,0.822,17.85,0,109.5,13.59,0.40,324.5
"2009-02-28 01:15:00",668654,6.141,359.5,5.662,1.026,4.389,100.1393,-0.345,0.792,17.87,0,109.5,13.59,0.41,321.5
"2009-02-28 01:15:30",668655,4.558,10.1,11.99,0.832,3.602,100.1432,-0.334,0.795,17.88,0,109.5,13.59,0.42,332.1
"2009-02-28 01:16:00",668656,2.558,27.13,8.58,0.443,-0.082,100.1432,-0.334,0.627,17.66,0,109.5,13.59,0.42,349.1
"2009-02-28 01:16:30",668657,3.091,37.13,6.679,1.208,2.2,100.1387,-0.346,0.842,17.8,0,109.4,13.59,0.40,359.1
"2009-02-28 01:17:00",668658,4.559,44.19,4.88,0.944,3.525,100.1359,-0.353,0.812,17.76,0,109.5,13.59,0.40,6.2
"2009-02-28 01:17:30",668659,3.679,34.74,8.07,1.117,2.922,100.1359,-0.353,0.76,17.72,0,109.5,13.59,0.40,356.7
"2009-02-28 01:18:00",668660,3.447,29.65,6.072,1.229,1.986,100.1359,-0.353,0.765,17.73,0,109.5,13.59,0.40,351.6
"2009-02-28 01:18:30",668661,4.563,35.22,6.382,1.173,3.584,100.1359,-0.353,0.786,17.73,0,109.5,13.59,0.40,357.2
"2009-02-28 01:19:00",668662,4.94,38.02,5.64,0.99,3.694,100.1359,-0.353,0.717,17.68,0,109.5,13.59,0.40,0.0
"2009-02-28 01:19:30",668663,4.767,37.27,5.918,1.21,3.488,100.1359,-0.353,0.712,17.73,0,109.5,13.59,0.40,359.3
"2009-02-28 01:20:00",668664,4.104,33.38,6.025,1.123,3.347,100.1359,-0.353,0.803,17.83,0,109.5,13.6,0.40,355.4
"2009-02-28 01:20:30",668665,3.72,32.17,5.491,1.408,2.743,100.1364,-0.352,0.782,17.81,0,109.5,13.6,0.40,354.2
"2009-02-28 01:21:00",668666,4.294,39.98,4.535,0.977,3.687,100.1367,-0.351,0.684,17.7,0,109.5,13.6,0.40,2.0
"2009-02-28 01:21:30",668667,3.905,36.16,6.138,1.255,3.051,100.1398,-0.343,0.794,17.78,0,109.5,13.6,0.41,358.2
"2009-02-28 01:22:00",668668,4.459,40.16,4.894,1.047,3.595,100.1421,-0.337,0.796,17.8,0,109.5,13.6,0.41,2.2
"2009-02-28 01:22:30",668669,4.331,40.4,6.301,1.143,3.553,100.1407,-0.341,0.791,17.78,0,109.5,13.6,0.41,2.4
"2009-02-28 01:23:00",668670,5.133,46.84,6.17,1.132,3.981,100.1322,-0.363,0.758,17.8,0,109.5,13.6,0.39,8.8
"2009-02-28 01:23:30",668671,4.764,42.93,6.409,1.194,2.539,100.1291,-0.37,0.643,17.72,0,109.5,13.6,0.38,4.9
"2009-02-28 01:24:00",668672,4.598,41.11,6.783,1.321,2.639,100.1294,-0.37,0.754,17.85,0,109.5,13.6,0.38,3.1
"2009-02-28 01:24:30",668673,4.628,39.97,6.298,1.284,2.981,100.1234,-0.385,0.761,17.88,0,109.5,13.61,0.37,2.0
"2009-02-28 01:25:00",668674,5.578,44.29,4.587,0.841,4.425,100.1203,-0.393,0.81,17.97,0,109.5,13.61,0.36,6.3
"2009-02-28 01:25:30",668675,5.712,48.1,4.83,1.119,3.753,100.1198,-0.394,0.766,17.96,0,109.5,13.61,0.36,10.1
"2009-02-28 01:26:00",668676,6.391,48.27,5.57,0.91,4.141,100.1229,-0.386,0.699,17.89,0,109.5,13.61,0.36,10.3
"2009-02-28 01:26:30",668677,6.052,48.8,5.493,0.938,4.356,100.1234,-0.385,0.735,17.96,0,109.5,13.61,0.37,10.8
"2009-02-28 01:27:00",668678,5.196,38.83,6.639,1.475,3.456,100.1237,-0.384,0.752,17.99,0,109.5,13.61,0.37,0.8
"2009-02-28 01:27:30",668679,5.642,49.4,7.097,0.972,4.722,100.1271,-0.375,0.755,17.96,0,109.5,13.61,0.38,11.4
"2009-02-28 01:28:00",668680,4.982,56.51,8.8,1.174,3.436,100.1274,-0.375,0.793,18.04,0,109.5,13.61,0.38,18.5
"2009-02-28 01:28:30",668681,4.888,59.7,6.789,1.166,3.195,100.1274,-0.375,0.707,17.98,0,109.5,13.61,0.38,21.7
"2009-02-28 01:29:00",668682,4.681,54.52,5.915,1.137,2.48,100.1291,-0.37,0.643,17.9,0,109.5,13.61,0.38,16.5
"2009-02-28 01:29:30",668683,4.409,52.42,5.87,1.061,2.137,100.1254,-0.38,0.755,18.05,0,109.5,13.61,0.37,14.4
"2009-02-28 01:30:00",668684,5.649,55.52,5.639,1.05,4.118,100.1167,-0.402,0.706,18,0,109.5,13.61,0.35,17.5
"2009-02-28 01:30:30",668685,5.489,52.38,5.815,1.238,3.191,100.1155,-0.405,0.755,18.07,0,109.5,13.61,0.35,14.4
"2009-02-28 01:31:00",668686,6.05,52.39,5.757,1.014,4.091,100.115,-0.406,0.719,18.04,0,109.5,13.61,0.34,14.4
"2009-02-28 01:31:30",668687,6.261,51.43,5.663,1.016,4.315,100.1099,-0.419,0.718,18.07,0,109.4,13.61,0.33,13.4
"2009-02-28 01:32:00",668688,5.839,49.78,6.215,1.296,3.046,100.1059,-0.43,0.699,18.08,0,109.5,13.6,0.32,11.8
"2009-02-28 01:32:30",668689,5.553,52.24,6.188,1.18,3.483,100.1017,-0.44,0.736,18.17,0,109.5,13.6,0.31,14.2
"2009-02-28 01:33:00",668690,5.744,53.57,5.842,1.048,4.062,100.1019,-0.44,0.739,18.21,0,109.5,13.61,0.31,15.6
"2009-02-28 01:33:30",668691,5.87,55.94,3.367,0.622,4.965,100.1019,-0.44,0.757,18.25,0,109.4,13.6,0.31,17.9
"2009-02-28 01:34:00",668692,4.848,51.06,5.847,1.152,3.379,100.1019,-0.44,0.668,18.18,0,109.5,13.61,0.31,13.1
"2009-02-28 01:34:30",668693,4.917,52.02,6.113,1.132,3.567,100.1019,-0.44,0.672,18.16,0,109.4,13.6,0.31,14.0
"2009-02-28 01:35:00",668694,4.36,50,5.557,1.161,2.797,100.1017,-0.44,0.606,18.12,0,109.5,13.61,0.31,12.0
"2009-02-28 01:35:30",668695,4.635,56.14,6.17,1.207,3.148,100.1017,-0.44,0.64,18.22,0,109.4,13.61,0.31,18.1
"2009-02-28 01:36:00",668696,4.705,58.24,5.427,1.11,4.229,100.0915,-0.466,0.728,18.35,0,109.4,13.61,0.28,20.2
"2009-02-28 01:36:30",668697,5.033,60.72,4.049,0.588,4.709,100.0841,-0.485,0.75,18.46,0,109.4,13.61,0.27,22.7
"2009-02-28 01:37:00",668698,4.164,56.38,6,1.161,2.874,100.0813,-0.492,0.614,18.39,0,109.4,13.62,0.26,18.4
"2009-02-28 01:37:30",668699,3.124,52.41,5.083,1.004,1.176,100.0747,-0.509,0.563,18.4,0,109.4,13.62,0.24,14.4
"2009-02-28 01:38:00",668700,3.566,55.6,6.374,1.268,1.971,100.0705,-0.52,0.493,18.35,0,109.4,13.62,0.23,17.6
"2009-02-28 01:38:30",668701,3.515,54.78,5.706,1.187,2.72,100.068,-0.526,0.625,18.52,0,109.4,13.62,0.22,16.8
"2009-02-28 01:39:00",668702,3.49,55.98,6.112,1.195,2.628,100.068,-0.526,0.579,18.48,0,109.4,13.62,0.22,18.0
"2009-02-28 01:39:30",668703,3.931,59.47,5.132,1.012,3.537,100.068,-0.526,0.649,18.58,0,109.4,13.62,0.22,21.5
"2009-02-28 01:40:00",668704,4.078,58.76,6.449,1.162,3.44,100.068,-0.526,0.633,18.62,0,109.4,13.62,0.22,20.8
"2009-02-28 01:40:30",668705,3.157,59.32,4.453,1.125,1.475,100.068,-0.526,0.51,18.49,0,109.4,13.62,0.22,21.3
"2009-02-28 01:41:00",668706,3.635,55.05,6.921,1.222,2.394,100.0657,-0.532,0.467,18.43,0,109.4,13.62,0.22,17.0
"2009-02-28 01:41:30",668707,3.875,55.28,6.667,1.123,3.077,100.0555,-0.558,0.557,18.43,0,109.5,13.63,0.19,17.3
"2009-02-28 01:42:00",668708,3.192,59.06,6.72,1.185,2.412,100.0479,-0.578,0.598,18.41,0,109.4,13.63,0.17,21.1
"2009-02-28 01:42:30",668709,3.964,67.89,5.423,1.08,3.746,100.043,-0.59,0.657,18.45,0,109.4,13.63,0.16,29.9
"2009-02-28 01:43:00",668710,4.08,66.55,5.409,1.064,3.171,100.0348,-0.611,0.537,18.35,0,109.4,13.63,0.14,28.6
"2009-02-28 01:43:30",668711,2.902,63.68,5.481,0.926,1.181,100.034,-0.613,0.449,18.23,0,109.4,13.63,0.14,25.7
"2009-02-28 01:44:00",668712,3.446,65.88,6.389,1.147,1.986,100.0343,-0.612,0.504,18.26,0,109.4,13.63,0.14,27.9
"2009-02-28 01:44:30",668713,3.96,65.93,6.773,1.222,2.996,100.0348,-0.611,0.553,18.29,0,109.4,13.63,0.14,27.9
"2009-02-28 01:45:00",668714,3.657,59.28,6.819,1.202,2.22,100.0345,-0.612,0.502,18.29,0,109.4,13.63,0.14,21.3
"2009-02-28 01:45:30",668715,4.016,60.98,4.665,1.109,3.733,100.0354,-0.609,0.589,18.41,0,109.4,13.63,0.14,23.0
"2009-02-28 01:46:00",668716,4.072,65.28,5.556,1.048,3.694,100.0362,-0.607,0.551,18.52,0,109.4,13.63,0.14,27.3
"2009-02-28 01:46:30",668717,2.556,58.51,4.444,0.626,0.337,100.0351,-0.61,0.364,18.4,0,109.4,13.63,0.14,20.5
"2009-02-28 01:47:00",668718,3.175,74.09,9.77,1.183,2.432,100.028,-0.628,0.444,18.49,0,109.4,13.63,0.12,36.1
"2009-02-28 01:47:30",668719,3.224,68.07,6.298,1.158,2.977,100.0306,-0.622,0.478,18.55,0,109.4,13.63,0.13,30.1
"2009-02-28 01:48:00",668720,2.217,47.56,5.143,1.005,0.848,100.032,-0.618,0.409,18.41,0,109.4,13.63,0.13,9.6
"2009-02-28 01:48:30",668721,3.496,46.9,4.823,1.043,3.556,100.0323,-0.617,0.508,18.42,0,109.4,13.63,0.13,8.9